Regional Weather Roundup
Issued by NWS Newport/Morehead, NC

Current Version | Previous Version | Graphics & Text | Print | Product List | Glossary Off
Versions: 1 2 3 4 5 6 7 8 9 10 11 12 13 14 15 16 17 18 19 20 21 22 23 24 25 26 27 28 29 30 31 32 33 34 35 36 37 38 39 40 41 42 43 44 45 46 47 48 49 50

000
ASUS42 KMHX 190425
RWRMHX
WEATHER ROUNDUP FOR EASTERN NORTH CAROLINA
NATIONAL WEATHER SERVICE NEWPORT/MOREHEAD CITY NC
1100 PM EST WED JAN 18 2017

NOTE: "FAIR" INDICATES FEW OR NO CLOUDS BELOW 12,000 FEET
WITH NO SIGNIFICANT WEATHER AND/OR OBSTRUCTIONS TO VISIBILITY

NCZ015>017-031-032-045>047-102-103-190500-
NORTH COAST

CITY           SKY/WX    TMP DP  RH WIND       PRES   REMARKS
EDENTON        CLEAR     46  42  87 CALM      30.05F
ELIZABETH CITY CLEAR     42  40  92 W5        30.04F
KITTY HAWK     NOT AVBL
MANTEO         CLEAR     44  44  98 N3        30.04S

$$

NCZ045>047-081-094-103-104-190500-
CENTRAL COAST

CITY           SKY/WX    TMP DP  RH WIND       PRES   REMARKS
FRISCO         CLEAR     49  45  86 CALM      30.04S

$$

NCZ095-097-098-100-101-190500-
SOUTHERN COAST

CITY           SKY/WX    TMP DP  RH WIND       PRES   REMARKS
BEAUFORT       PTCLDY    46  43  89 NE5       30.06S
CEDAR ISLAND   NOT AVBL
JACKSONVILLE   CLOUDY    49  45  86 E6        30.05S
PINEY ISLAND   CLOUDY   N/A N/A N/A W5        30.06R
WILMINGTON     CLEAR     52  47  83 SE6       30.06R


$$

NCZ011>013-027>030-043-044-078>080-089-090>093-098-190500-
COASTAL PLAIN

CITY           SKY/WX    TMP DP  RH WIND       PRES   REMARKS
AHOSKIE          N/A     41  40  97 CALM      30.07S
CLINTON        CLEAR     48  41  76 CALM      30.06R
ELIZABETHTOWN  CLEAR     49  40  71 CALM      30.05R
GOLDSBORO      CLOUDY    46  40  81 E7        30.03S
GREENVILLE     CLOUDY    43  43 100 CALM      30.07F
HAVELOCK       CLOUDY    46  43  89 NE3       30.07R
KENANSVILLE    CLEAR     41  39  93 CALM      30.05F
KINSTON        CLOUDY    41  39  93 CALM      30.06F
NEW BERN       CLOUDY    43  42  97 CALM      30.07R
RICHLANDS      CLOUDY    41  40  96 NE3       30.05S
ROCKY MOUNT    CLOUDY    47  38  71 CALM      30.06S
WASHINGTON     CLOUDY    42  42  97 CALM        N/A
WHITEVILLE     PTCLDY    49  45  83 CALM      30.04S

$$

AMZ130-135-150-152-154-156-158-170-250-252-270-ANZ085-086-088-633-658-670-190500-
MARINE OBSERVATIONS

STATION/POSITION TIME  TEMP    WIND        PRES    WAVE   SWELL
                       AIR SEA DIR/SP/G            HT/PER HT/PER
                 (UTC) (F)     (DEG/KT/KT) (MB)    (FT/S) (FT/S)
CHESAPEAKE LIGHT NOT AVBL
64 E VA BEACH    0350   52 57   10/ 21/ 25 1015.3    6/ 6
DUCK             0400   47 45  330/  8/  8 1016.7
2 E DUCK         0400      46                N/A     2/ 6
OREGON INLET     0400   47 51  330/  5/  7 1016.9
13E OREGON INLT  NOT AVBL
HATTERAS CG      0400   49 55  340/  8/  9 1016.8
DIAMOND BUOY     0350   54 75   20/ 17/ 23 1016.5    5/ 7   2/14
CAPE LOOKOUT     0400   52      20/ 11/ 13 1017.2
BEAUFORT LAB     0400   48 51   20/  4/  5 1016.9
30 SE NEW RVR IN 0408   57 62   60/ 16/ 21 1017.0
30 SE NEW RVR IN 0413      62                N/A     5/ 7
27 SE WRIGHTSVLE 0408   60 68   80/ 14/ 19 1016.7
5 SE WRIGHTSVLE  0408   55      90/  8/ 12 1017.5
225 S CAPE HAT   0350   69 72   10/ 21/ 25 1014.5    9/ 8
41 SE CHARLESTON 0350   70 71  270/ 16/ 17 1016.0    4/ 6

$$




USA.gov is the U.S. government's official web portal to all federal, state and local government web resources and services.